Back to catalog

OPS 4682 DEB

AlivePO
NORAD 1399·DEBRIS·🇺🇸 United States

Launched Apr 3, 1965 from Vandenberg Space Force Base

Loading…

Next Passes (next 24 hours)

TLE

FreshSource: Space-Track

Epoch: Sep 14, 2026, 02:06 UTC

1 01399U 65027E   26257.08812842 -.00000537  00000-0 -18117-2 0  9994
2 01399  90.2765  27.2747 0009199  60.4188 299.7850 12.99966820644654

Track OPS 4682 DEB in real time with AllMySat

Download on the App Store